{"data":{"norad_id":67277,"intl_designator":"2025-313AF","name":"2025-313AF","alt_names":[],"object_type":"PAYLOAD","status":"ACTIVE","operator":null,"country":"TBD","launch_date":"2025-12-28","launch_site_code":"VOSTO","launch_vehicle":null,"mission":null,"orbit_class":"UNKNOWN","rcs_meters":null,"size_class":null,"mass_kg":null,"dimensions":null,"purposes":[],"wikipedia_slug":null,"has_3d_model":false,"image_url":null,"decayed_at":null,"tle_current":{"epoch":"2026-05-25T03:39:35.673408Z","epoch_age_seconds":69074,"freshness":"FRESH","line1":"1 67277U 25313AF  26145.15249622  .00006301  00000+0  27594-3 0  9991","line2":"2 67277  97.3915 220.0759 0015324  91.6533 268.6458 15.22269188 22447","mean_motion":15.22269188,"eccentricity":0.0015324,"inclination_deg":97.3915,"raan_deg":220.0759,"arg_perigee_deg":91.6533,"mean_anomaly_deg":268.6458,"bstar":0.00027594,"rev_number":2244,"period_min":94.595621546536,"perigee_km":488.45927157681,"apogee_km":509.5363142902,"semimajor_km":6877.1347929335,"source":"CELESTRAK","updated_at":"2026-05-25T13:38:06.852188Z"}}}